Volver al catálogo

COSMOS 841

ActivoMilitarLEO
NORAD 9022·PAYLOAD·🇷🇺 Russia

Lanzado Jul 15, 1976 desde Plesetsk Cosmodrome

Loading…

Próximos Pases (próximas 24 horas)

TLE

ActualizadoSource: Space-Track

Época: Sep 14, 2026, 15:24 UTC

1 09022U 76069A   26257.64224875  .00000100  00000-0  42820-4 0  9992
2 09022  74.0430 136.6484 0013281 201.9807 158.0778 14.36851299625228

Sigue COSMOS 841 en tiempo real con AllMySat

Download on the App Store